FW0743 Weather Reports


time (UTC)temp
F
wind
direction
speed
knots
gust
knots
rain 1hr
in
rain 24hr
in
rain mn
in
humidity
%
barometer
mb
20260906193013 71 329 4.3 8.7 0.00 0.00 0.00 57 1018.3
20260906191519 71 72 4.3 9.6 0.00 0.00 0.00 56 1018.3
20260906190027 71 42 3.5 8.7 0.00 0.00 0.00 55 1018.4
20260906184530 71 360 1.7 8.7 0.00 0.00 0.00 57 1018.2
20260906183031 70 44 3.5 11.3 0.00 0.00 0.00 57 1018.4
20260906181523 70 67 4.3 11.3 0.00 0.00 0.00 56 1018.5
20260906180036 70 48 3.5 9.6 0.00 0.00 0.00 58 1018.7
20260906174534 70 57 1.7 9.6 0.00 0.00 0.00 57 1018.7
20260906173032 69 46 3.5 8.7 0.00 0.00 0.00 59 1018.7
20260906171514 70 51 2.6 12.2 0.00 0.00 0.00 57 1018.6
20260906170022 68 123 5.2 9.6 0.00 0.00 0.00 59 1018.6
20260906164525 69 91 3.5 10.4 0.00 0.00 0.00 59 1018.6
20260906163027 69 360 2.6 9.6 0.00 0.00 0.00 55 1018.8
20260906161533 69 66 1.7 9.6 0.00 0.00 0.00 62 1018.8
20260906160022 68 355 1.7 9.6 0.00 0.00 0.00 65 1018.8
20260906154525 67 290 3.5 8.7 0.00 0.00 0.00 70 1018.9
20260906153031 67 317 3.5 7.8 0.00 0.00 0.00 71 1018.9
20260906151532 66 337 4.3 8.7 0.00 0.00 0.00 70 1019.1
20260906150035 66 323 2.6 8.7 0.00 0.00 0.00 72 1019.0
20260906144523 65 63 3.5 12.2 0.00 0.00 0.00 75 1018.9
20260906143027 65 360 3.5 8.7 0.00 0.00 0.00 75 1018.8
20260906141512 64 5 3.5 7.8 0.00 0.00 0.00 77 1018.7
20260906140005 64 69 1.7 7.0 0.00 0.00 0.00 80 1018.7
20260906134504 63 20 3.5 7.8 0.00 0.00 0.00 81 1018.6
20260906133005 62 336 1.7 4.3 0.00 0.00 0.00 84 1018.6
20260906131504 61 53 2.6 4.3 0.00 0.00 0.00 85 1018.6
20260906130006 60 66 2.6 6.1 0.00 0.00 0.00 90 1018.7
20260906124507 59 19 1.7 5.2 0.00 0.00 0.00 93 1018.5
20260906123007 58 73 0.9 3.5 0.00 0.00 0.00 97 1018.5
20260906121512 57 5 1.7 4.3 0.00 0.00 0.00 98 1018.5
20260906120007 56 327 0.9 5.2 0.00 0.00 0.00 98 1018.3
20260906114516 55 5 1.7 4.3 0.00 0.00 0.00 98 1018.2
20260906113011 54 31 0.9 3.5 0.00 0.00 0.00 98 1018.2
20260906111508 53 333 0.9 2.6 0.00 0.00 0.00 98 1017.9
20260906110007 53 23 0.9 2.6 0.00 0.00 0.00 98 1017.8
20260906104514 53 347 0.9 2.6 0.00 0.00 0.00 98 1017.6
20260906103008 53 342 0.9 2.6 0.00 0.00 0.00 98 1017.4
20260906101517 53 342 0.9 2.6 0.00 0.00 0.00 98 1017.3
20260906100020 54 29 1.7 3.5 0.00 0.00 0.00 97 1017.1
20260906094506 54 10 1.7 6.1 0.00 0.00 0.00 97 1017.0
20260906093011 54 49 1.7 7.0 0.00 0.00 0.00 98 1016.8
20260906091514 54 23 0.9 3.5 0.00 0.00 0.00 97 1016.4
20260906090015 54 66 0.9 3.5 0.00 0.00 0.00 97 1016.3
20260906084514 55 28 0.9 2.6 0.00 0.00 0.00 97 1016.1
20260906083010 55 23 0.9 2.6 0.00 0.00 0.00 97 1015.9
20260906081518 55 14 0.0 2.6 0.00 0.00 0.00 97 1015.7
20260906080014 55 18 0.9 2.6 0.00 0.00 0.00 97 1015.8
20260906074514 55 20 1.7 3.5 0.00 0.00 0.00 97 1015.7
20260906073019 55 355 0.0 1.7 0.00 0.00 0.00 97 1015.6
20260906071513 56 355 0.9 1.7 0.00 0.00 0.00 97 1015.7
20260906070015 55 355 0.0 1.7 0.00 0.00 0.00 97 1015.7
20260906064516 55 355 0.0 1.7 0.00 0.00 0.00 96 1015.6
20260906063018 55 355 0.0 0.9 0.00 0.00 0.00 96 1015.6
20260906061518 56 355 0.0 0.9 0.00 0.00 0.00 96 1015.7
20260906060025 56 355 0.0 0.9 0.00 0.00 0.00 95 1015.7
20260906054532 57 355 0.0 0.9 0.00 0.00 0.00 95 1015.8
20260906053017 57 355 0.0 0.9 0.00 0.00 0.00 95 1015.8
20260906051518 58 355 0.0 0.9 0.00 0.00 0.00 94 1015.7
20260906050019 58 355 0.0 0.0 0.00 0.00 0.00 94 1015.7
20260906044516 59 355 0.0 0.9 0.00 0.00 0.00 93 1015.7
20260906043021 59 355 0.0 0.0 0.00 0.00 0.00 93 1015.8
20260906041521 60 355 0.0 0.0 0.00 0.00 0.00 93 1015.7
20260906040037 60 355 0.0 1.7 0.00 0.00 0.00 93 1015.8
20260906034523 60 355 0.0 0.0 0.00 0.00 0.00 93 1015.6
20260906033037 60 355 0.0 0.0 0.00 0.00 0.00 92 1015.6
20260906031522 60 355 0.0 0.9 0.00 0.00 0.00 92 1015.5
20260906030021 61 355 0.0 0.0 0.00 0.00 0.00 92 1015.4
20260906024526 61 355 0.0 0.9 0.00 0.00 0.00 91 1015.3
20260906023024 61 355 0.0 1.7 0.00 0.00 0.00 91 1015.3
20260906021514 61 360 0.9 2.6 0.00 0.00 0.00 91 1015.3
20260906020005 61 360 0.0 1.7 0.00 0.00 0.00 91 1015.1
20260906014511 62 5 0.0 1.7 0.00 0.00 0.00 90 1015.1
20260906013013 62 5 0.0 2.6 0.00 0.00 0.00 89 1015.1
20260906011517 63 355 0.0 2.6 0.00 0.00 0.00 89 1015.1
20260906010004 63 33 0.0 3.5 0.00 0.00 0.00 89 1015.1
20260906004504 63 331 0.0 2.6 0.00 0.00 0.00 89 1015.0
20260906003012 64 17 0.0 2.6 0.00 0.00 0.00 88 1014.9
20260906001517 64 341 0.9 4.3 0.00 0.00 0.00 88 1015.0
20260906000017 64 352 0.9 3.5 0.00 0.00 0.00 87 1014.7
20260905234507 64 26 0.9 3.5 0.00 0.00 0.00 86 1014.9
20260905233009 65 343 0.9 6.1 0.00 0.00 0.00 85 1015.0
20260905231519 66 348 1.7 3.5 0.00 0.00 0.00 84 1014.7
20260905230017 67 303 2.6 7.8 0.00 0.00 0.00 82 1014.7
20260905224540 68 5 1.7 6.1 0.00 0.00 0.00 80 1014.6
20260905223008 67 340 3.5 8.7 0.00 0.00 0.00 80 1014.6
20260905221513 69 323 1.7 7.0 0.00 0.00 0.00 78 1014.7
20260905220019 68 321 3.5 9.6 0.00 0.00 0.00 78 1014.6
20260905214520 69 329 3.5 7.8 0.00 0.00 0.00 77 1014.3
20260905213019 69 323 2.6 10.4 0.00 0.00 0.00 76 1014.1
20260905211533 69 11 6.1 10.4 0.00 0.00 0.00 76 1014.0
20260905210026 70 302 3.5 10.4 0.00 0.00 0.00 76 1014.0
20260905204520 70 350 4.3 12.2 0.00 0.00 0.00 75 1014.0
20260905203026 70 350 4.3 10.4 0.00 0.00 0.00 74 1014.1
20260905201525 71 343 4.3 10.4 0.00 0.00 0.00 73 1014.1
20260905200022 70 312 6.1 12.2 0.00 0.00 0.00 73 1014.1
20260905194520 71 345 4.3 8.7 0.00 0.00 0.00 72 1014.0